Regional Weather Roundup
Issued by NWS

Home | Current Version | Previous Version | Text Only | Print | Product List | Glossary Off
Versions: 1 2 3 4 5 6 7 8 9 10 11 12 13 14 15 16 17 18 19 20 21 22 23 24 25 26 27 28 29 30 31 32 33 34 35 36 37 38 39 40 41 42 43 44 45 46 47 48 49 50

000
ASUS43 KBIS 101802
RWRND

NORTH DAKOTA REGIONAL WEATHER ROUNDUP
NATIONAL WEATHER SERVICE BISMARCK ND
1200 PM CST SUN DEC 10 2017

NOTE: "FAIR" INDICATES FEW OR NO CLOUDS BELOW 12,000 FEET WITH NO
SIGNIFICANT WEATHER AND/OR OBSTRUCTIONS TO VISIBILITY.


NDZ001>003-009>011-017-101900-
NORTHWEST NORTH DAKOTA

CITY           SKY/WX    TMP DP  RH WIND       PRES   REMARKS
WILLISTON      CLOUDY    41  20  43 W13       30.07F
6HR MIN TEMP:  32; 6HR MAX TEMP:  41;

MINOT          CLOUDY    42  24  49 W10       30.00F
MINOT AFB      CLOUDY    42  25  51 NW16      29.99S
$$

NDZ018>021-031>035-040>046-101900-
SOUTHWEST NORTH DAKOTA

CITY           SKY/WX    TMP DP  RH WIND       PRES   REMARKS
BISMARCK       CLOUDY    44  25  47 W9        30.06F
6HR MIN TEMP:  27; 6HR MAX TEMP:  44;

DICKINSON      MOSUNNY   44  21  40 W21       30.07S
GARRISON         N/A     40  23  50 NW12      30.03S
6HR MIN TEMP:  30; 6HR MAX TEMP:  40;

HETTINGER ARPT SUNNY     50  14  23 W24G30    30.13F
$$

NDZ004>008-012>016-024-026-027-054-101900-
NORTHEAST NORTH DAKOTA

CITY           SKY/WX    TMP DP  RH WIND       PRES   REMARKS
GRAND FORKS    CLOUDY    25  19  78 NW3       30.05F
GRND FRKS AFB  MOSUNNY   25  18  74 CALM      30.05S
DEVILS LAKE    CLOUDY    29  25  85 S3        30.00F
$$

NDZ022-023-025-028>030-036>039-047>053-101900-
SOUTHEAST NORTH DAKOTA

CITY           SKY/WX    TMP DP  RH WIND       PRES   REMARKS
FARGO          CLOUDY    26  20  77 N6        30.06F WCI  19
6HR MIN TEMP:  16; 6HR MAX TEMP:  26;

JAMESTOWN      CLOUDY    34  27  75 NW6       30.00F
$$





USA.gov is the U.S. government's official web portal to all federal, state and local government web resources and services.